Terminal Aerodrome Forecast
Issued by NWS Boston, MA

Home | Current Version | Previous Version | Text Only | Print | Product List | Glossary On
Versions: 1 2 3 4 5 6 7 8 9 10 11 12 13 14 15 16 17 18 19 20 21 22 23 24 25 26 27 28 29 30 31
000
FTUS41 KBOX 172320
TAFORH
TAF
KORH 172320Z 1800/1824 VRB03KT P6SM FEW250
     FM181000 21005KT P6SM VCSH BKN050
     FM181300 18006KT P6SM -SHRA OVC010
     FM181700 18009KT 3SM -SHRA BR OVC008=

USA.gov is the U.S. government's official web portal to all federal, state and local government web resources and services.